Meteo Giornale » Osservazioni meteo Italia » S Maria Di Leuca

ore: 12:55 - Osservazioni Meteo S Maria Di Leuca
Lat. 39° 49' N Lon. 18° 21' E Alt. 104 metri s.l.m.

sereno Europe/Rome

23 °C

Sereno

Temp. 24 Ore

17 °C

23 °C

Sud/Sud-Est

9.3 Km/h

Dew point 19 °C

Umidità 78 %

Visibilità  10 Km

Il sole sorge alle ore 06:59

Il sole tramonta alle ore 18:04

Data e Ora Cielo e Fenomeni T °C DP °C Um. % Pres. hPa Vis. km Vento km/h
Oggi h: 12:55 sereno Sereno 23 19 78 1015 10 S/SE 9.3
Oggi h: 11:55 sereno Sereno 22 12 53 1015 10 N 5.5
Oggi h: 10:55 sereno Sereno 21 14 64 1015 10 N 5.5
Oggi h: 09:55 sereno Sereno 20 15 72 1015 10 E/NE 9.3
Oggi h: 08:55 sereno Sereno 18 14 77 1015 10 N/NE 7.4
Oggi h: 07:55 sereno Sereno 17 13 77 1014 10 N/NE 13
Oggi h: 06:55 sereno Sereno 17 13 77 1014 8 N/NE 13
Oggi h: 05:55 sereno Sereno 17 13 77 1014 10 N/NE 14.8
Oggi h: 04:55 sereno Sereno 18 14 77 1014 10 N/NE 11.1
Oggi h: 03:55 sereno Sereno 18 14 77 1015 10 N 9.3
Oggi h: 02:55 sereno Sereno 18 14 77 1016 10 N 11.1
Oggi h: 01:55 sereno Sereno 19 15 77 1016 10 N/NE 7.4
Oggi h: 00:55 sereno Sereno 19 15 77 1016 10 N/NE 7.4
Ieri h: 23:55 sereno Sereno 19 15 77 1016 10 N/NE 7.4
Ieri h: 22:55 sereno Sereno 19 17 88 1016 10 N/NE 9.3
Ieri h: 21:55 sereno Sereno 19 16 82 1016 10 N 7.4
Ieri h: 20:55 sereno Sereno 20 16 77 1016 10 N/NO 7.4
Ieri h: 19:55 sereno Sereno 20 17 82 1016 10 N 5.5
Ieri h: 18:55 sereno Sereno 20 18 88 1015 10 N 5.5
Ieri h: 16:55 sereno Sereno 21 18 82 1016 10 N 3.7